McConnell AFB, KS

5:06 AM CDT on July 28, 2017 (GMT -0500)
McConnell Air Force Base

Weather History for KIAB - January, 2013

Change the Weather History Date:

Tuesday, January 22, 2013

  Actual Average Record
Temperature  
Mean Temperature 30 °F -  
Max Temperature 45 °F 42 °F 66 °F (2002)
Min Temperature 16 °F 23 °F 9 °F (2008)
Degree Days  
Heating Degree Days 34    
Moisture  
Dew Point 14 °F    
Average Humidity 55    
Maximum Humidity 74    
Minimum Humidity 32    
Precipitation  
Precipitation 0.00 in - - ()
Sea Level Pressure  
Sea Level Pressure 30.28 in    
Wind  
Wind Speed 6 mph (ESE)    
Max Wind Speed 9 mph    
Max Gust Speed -    
Visibility 10 miles    
Events      
Averages and records for this station are not official NWS values.
T = Trace of Precipitation, MM = Missing Value Source: NWS Daily Summary

Daily Weather History Graph

Daily Weather History Graph

Search for Another Location

Airport or City:

Trip Planner

Search our weather history database for the weather conditions in past years. The results will help you decide how hot, cold, wet, or windy it might be!

Date:

Astronomy

Jan. 22, 2013 Rise Set
Actual Time 7:39 AM CST 5:42 PM CST
Civil Twilight 7:11 AM CST 6:10 PM CST
Nautical Twilight 6:39 AM CST 6:42 PM CST
Astronomical Twilight 6:08 AM CST 7:13 PM CST
Moon 2:07 PM CST (1/22) 4:01 AM CST (1/22)
Length of Visible Light 10h 59m
Length of Day
10h 02m
Waxing Gibbous, 83% of the Moon is Illuminated
Jan 22
Waxing Gibbous
Jan 26
Full
Feb 3
Last Quarter
Feb 10
New
Feb 17
First Quarter

Hourly Weather History & Observations

Time (CST) Temp. Windchill Dew Point Humidity Pressure Visibility Wind Dir Wind Speed Gust Speed Precip Events Conditions
12:55 AM 20.5 °F 11.7 °F 13.1 °F 73% 30.33 in 10.0 mi East 6.9 mph - N/A   Clear
1:55 AM 19.4 °F 10.4 °F 12.2 °F 74% 30.31 in 10.0 mi SE 6.9 mph - N/A   Clear
2:55 AM 18.9 °F 8.8 °F 11.5 °F 73% 30.34 in 10.0 mi ENE 8.1 mph - N/A   Clear
3:55 AM 18.0 °F 9.8 °F 10.9 °F 74% 30.33 in 10.0 mi ENE 5.8 mph - N/A   Clear
4:55 AM 17.2 °F 8.9 °F 9.5 °F 72% 30.32 in 10.0 mi East 5.8 mph - N/A   Clear
5:55 AM 16.3 °F 7.8 °F 8.8 °F 72% 30.31 in 10.0 mi ESE 5.8 mph - N/A   Clear
6:55 AM 16.3 °F 6.7 °F 9.0 °F 73% 30.30 in 10.0 mi SE 6.9 mph - N/A   Clear
7:55 AM 16.3 °F 5.7 °F 9.0 °F 73% 30.30 in 10.0 mi East 8.1 mph - N/A   Clear
8:55 AM 20.8 °F 10.4 °F 10.6 °F 65% 30.27 in 10.0 mi SE 9.2 mph - N/A   Clear
9:55 AM 26.1 °F 19.4 °F 12.6 °F 57% 30.33 in 10.0 mi ENE 5.8 mph - N/A   Clear
10:55 AM 30.0 °F 23.2 °F 13.5 °F 50% 30.32 in 10.0 mi ESE 6.9 mph - N/A   Clear
11:55 AM 34.7 °F 27.5 °F 13.6 °F 42% 30.30 in 10.0 mi ESE 9.2 mph - N/A   Clear
12:55 PM 39.2 °F 35.0 °F 14.2 °F 36% 30.26 in 10.0 mi SSE 5.8 mph - N/A   Clear
1:55 PM 42.8 °F 39.3 °F 14.9 °F 32% 30.23 in 10.0 mi SSE 5.8 mph - N/A   Clear
2:55 PM 44.2 °F 41.8 °F 15.8 °F 32% 30.21 in 10.0 mi South 4.6 mph - N/A   Clear
3:55 PM 45.0 °F 41.2 °F 16.7 °F 32% 30.21 in 10.0 mi South 6.9 mph - N/A   Clear
4:55 PM 44.8 °F 42.4 °F 17.4 °F 33% 30.22 in 10.0 mi South 4.6 mph - N/A   Clear
5:55 PM 39.7 °F 37.6 °F 17.8 °F 41% 30.22 in 10.0 mi South 3.5 mph - N/A   Clear
6:55 PM 37.8 °F 35.3 °F 18.9 °F 47% 30.23 in 10.0 mi NNE 3.5 mph - N/A   Clear
7:55 PM 36.7 °F 32.0 °F 18.0 °F 47% 30.24 in 10.0 mi East 5.8 mph - N/A   Clear
8:55 PM 34.2 °F 31.2 °F 17.4 °F 50% 30.26 in 10.0 mi ESE 3.5 mph - N/A   Clear
9:55 PM 32.9 °F 29.8 °F 17.6 °F 53% 30.27 in 10.0 mi NE 3.5 mph - N/A   Clear
10:55 PM 26.2 °F 18.6 °F 17.2 °F 69% 30.29 in 10.0 mi North 6.9 mph - N/A   Clear
11:55 PM 28.8 °F 23.7 °F 17.2 °F 62% 30.27 in 10.0 mi ENE 4.6 mph - N/A   Clear